Hourly Data Report for July 10, 2021

NORTH CAPE
PRINCE EDWARD ISLAND
Current Station Operator: ECCC - MSC

47°03'29.000" N
63°59'55.000" W
7.60 m
8300516
71987
WNE

Download Data

Hourly Data (July 2021)
Hourly Data Report for July 10, 2021
TIME
LST
Temp Definition
°C
Dew Point Definition
°C
Rel Hum Definition
%
Precip. Amount Definition
mm

Wind Dir Definition
10's deg

Wind Spd Definition
km/h
Visibility Definition
km
Stn Press Definition
kPa
Hmdx Definition


Wind Chill Definition


Weather Definition


00:00 16.5 16.3 98 2.4 10 24   100.65     LegendNANA
01:00 16.8 16.7 99 18.9 9 38   100.26     LegendNANA
02:00 16.8 16.6 99 8.8 9 41   100.02     LegendNANA
03:00 17.8 17.7 99 3.2 16 13   99.90     LegendNANA
04:00 14.0 13.4 96 1.6 36 62   100.12     LegendNANA
05:00 14.3 13.5 95 0.3 1 47   100.23     LegendNANA
06:00 13.9 13.0 94 0.0 34 42   100.53     LegendNANA
07:00 13.4 11.6 88 0.0 33 46   100.83     LegendNANA
08:00 14.4 12.4 88 0.0 31 30   100.98     LegendNANA
09:00 14.5 11.6 83 0.0 32 25   101.11     LegendNANA
10:00 14.7 12.3 86 0.0 30 21   101.23     LegendNANA
11:00 16.0 13.4 84 0.0 29 12   101.36     LegendNANA
12:00 16.3 13.9 86 0.0 28 11   101.42     LegendNANA
13:00 16.7 13.3 80 0.0 26 7   101.43     LegendNANA
14:00 16.5 12.9 79 0.0 26 9   101.44     LegendNANA
15:00 16.9 13.0 78 0.0 26 8   101.46     LegendNANA
16:00 18.0 12.9 72 0.0 26 3   101.45     LegendNANA
17:00 17.3 12.9 75 0.0 14 12   101.46     LegendNANA
18:00 16.7 13.2 80 0.0 14 15   101.47     LegendNANA
19:00 16.0 13.4 85 0.0 15 15   101.46     LegendNANA
20:00 15.2 13.1 87 0.0 16 10   101.47     LegendNANA
21:00 14.9 12.4 85 0.0 16 14   101.53     LegendNANA
22:00 15.2 11.6 79 0.0 15 17   101.50     LegendNANA
23:00 14.7 12.5 87 0.0 17 11   101.51     LegendNANA

Notes on Data Quality.

Legend

  • E = Estimated
  • M = Missing
  • NA = Not Available*
  • [empty] = Indicates an unobserved value
Date modified: